This demonstration page uses our WeatherBlox Daily Observations layout. Learn more.

41.86663, -103.66717

Hourly Observations for December 15, 2019

Temp ( °F °C ) Dew Point ( °F °C ) Humidity (%) Winds ( mph kmh ) Pressure ( in mb ) Visibility ( mi km ) Precip ( " mm )
12:04 am 00:04 Cloudy with Light Snow 28 -2.2 27 -2.8 96 96 ESE 3 6 29.88 1012 1.75 2.816345 0.001 0.001
12:21 am 00:21 Cloudy with Light Snow 28 -2.2 27 -2.8 96 96 Calm 29.88 1012 1.75 2.816345 0.001 0.001
12:32 am 00:32 Cloudy with Light Snow 28 -2 27 -3 93 93 NNW 6 9 29.88 1012 2 3.21868 0 0
12:49 am 00:49 Cloudy with Light Snow 28 -2 27 -3 93 93 NNW 6 9 29.88 1012 4 6.43736 0.01 0.254
12:53 am 00:53 Cloudy with Light Snow 28 -2.2 27 -2.8 96 96 NNW 6 9 29.81 1010 4 6.43736 0.01 0.254
1:05 am 01:05 Cloudy with Light Snow 28 -2.2 27 -2.8 96 96 NW 5 7 29.9 1012 4 6.43736 0.001 0.001
1:12 am 01:12 Cloudy with Light Snow 27 -2.8 26 -3.3 96 96 NW 5 7 29.91 1013 4 6.43736 0.001 0.001
1:51 am 01:51 Cloudy 27 -3 27 -3 100 100 WNW 8 13 29.93 1014 10 16.0934 0.001 0.001
1:53 am 01:53 Cloudy 27 -2.8 26 -3.3 96 96 NW 9 15 29.84 1011 10 16.0934 0.001 0.001
2:53 am 02:53 Cloudy 25 -3.9 23 -5 92 92 WNW 7 11 29.89 1012 9 14.48406 0 0
3:53 am 03:53 Mostly Cloudy 25 -3.9 23 -5 92 92 WNW 12 19 29.9 1012 10 16.0934 0.001 0.001
4:53 am 04:53 Clear 21 -6.1 19 -7.2 92 92 WNW 10 17 29.92 1013 10 16.0934 0 0
5:53 am 05:53 Clear 17 -8.3 16 -8.9 95 95 NW 12 19 29.95 1014 10 16.0934 0 0
6:53 am 06:53 Clear 16 -8.9 15 -9.4 96 96 WNW 9 15 29.96 1015 10 16.0934 0 0
7:53 am 07:53 Sunny 16 -8.9 14 -10 92 92 WNW 8 13 29.98 1015 10 16.0934 0 0
8:53 am 08:53 Sunny 19 -7.2 16 -8.9 88 88 NW 6 9 30 1016 10 16.0934 0 0
9:53 am 09:53 Sunny 23 -5 18 -7.8 81 81 NW 9 15 30.01 1016 10 16.0934 0 0
10:53 am 10:53 Sunny 26 -3.3 19 -7.2 75 75 NW 7 11 30 1016 10 16.0934 0 0
11:53 am 11:53 Sunny 28 -2.2 20 -6.7 72 72 NNW 7 11 29.98 1015 10 16.0934 0 0
12:53 pm 12:53 Sunny 30 -1.1 21 -6.1 69 69 NW 3 6 29.96 1015 10 16.0934 0 0
1:53 pm 13:53 Sunny 31 -0.6 21 -6.1 67 67 WNW 6 9 29.95 1014 10 16.0934 0 0
2:53 pm 14:53 Sunny 31 -0.6 22 -5.6 69 69 WNW 6 9 29.96 1015 10 16.0934 0 0
3:53 pm 15:53 Sunny 27 -2.8 20 -6.7 75 75 WNW 5 7 30 1016 10 16.0934 0 0
4:53 pm 16:53 Clear 19 -7.2 16 -8.9 88 88 N 3 6 30.06 1018 10 16.0934 0 0
5:53 pm 17:53 Clear 16 -8.9 14 -10 92 92 N 3 6 30.09 1019 10 16.0934 0 0
6:53 pm 18:53 Clear 12 -11.1 10 -12.2 92 92 N 5 7 30.12 1020 10 16.0934 0 0
7:53 pm 19:53 Clear 13 -10.6 11 -11.7 92 92 NW 7 11 30.13 1020 10 16.0934 0 0
8:53 pm 20:53 Clear 13 -10.6 10 -12.2 88 88 W 7 11 30.14 1021 10 16.0934 0 0
9:53 pm 21:53 Clear 16 -8.9 11 -11.7 80 80 NW 9 15 30.13 1020 10 16.0934 0 0
10:53 pm 22:53 Clear 13 -10.6 8 -13.3 81 81 NW 12 19 30.14 1021 10 16.0934 0 0
11:53 pm 23:53 Clear 12 -11.1 8 -13.3 84 84 NW 12 19 30.15 1021 10 16.0934 0 0

Powered by AerisWeather